Wetbulb
56.25 52.39 51.54 50.06 42.55 41.42 36.54 39.63 42.98 44.54 43.52 48.20 51.50 49.25 49.62 51.96 49.73 45.33 62.07 65.00 67.65 68.24 69.50 70.18 71.53 71.23 70.26 70.28 70.46 70.09 70.14 69.25 68.80 68.99 69.12 68.80 68.76 68.27 68.09 69.13 68.44 69.98 69.48 69.04 69.01 69.23 69.06 68.51 68.12
52.35 53.09 51.61 45.26 39.05 35.72 36.47 39.10 43.25 45.09 50.13 52.25 50.46 50.92 51.66 50.06 56.59 59.95 60.87 68.02 68.19 68.77 69.20 70.00 70.42 70.96 69.91 70.18 69.94 69.66 69.54 69.68 68.77 68.35 68.19 67.68 67.66 67.38 67.63 67.91 68.20 68.94 68.77 68.45 68.52 68.71 68.46 68.05 68.03
52.42 51.66 48.11 41.70 36.52 35.59 35.90 40.78 43.94 45.62 51.37 44.83 49.08 52.23 52.15 52.76 56.89 60.21 63.37 67.41 67.69 67.57 68.91 69.22 70.13 70.90 69.98 69.90 69.68 69.29 69.52 70.29 69.45 68.03 68.39 67.22 67.30 67.03 66.81 67.47 67.93 68.01 67.97 68.36 68.46 68.76 68.09 67.61 67.13
50.45 50.29 45.87 39.90 37.70 39.24 39.26 43.40 45.09 45.39 44.32 49.95 49.84 50.27 53.72 58.92 59.87 61.80 67.07 66.65 66.36 66.54 68.10 69.24 70.69 71.02 69.97 70.05 69.55 69.24 69.49 69.70 69.64 68.15 67.35 67.46 66.42 66.94 66.64 66.32 66.91 66.76 67.66 68.06 67.79 67.03 67.32 67.29 66.45
50.14 48.36 40.05 37.29 38.47 39.14 39.53 46.27 46.16 44.22 43.73 46.41 47.67 47.41 51.16 58.19 63.15 65.80 65.38 65.86 65.12 65.32 67.11 68.56 70.05 70.44 70.46 70.08 69.34 69.43 68.87 68.75 68.53 67.71 66.71 66.60 66.18 65.81 66.03 66.39 66.62 66.58 66.42 66.85 66.82 66.66 67.11 66.89 65.60
47.62 46.93 38.40 34.73 37.09 40.49 42.36 46.94 45.86 43.34 44.52 47.78 50.89 51.24 52.24 59.09 63.19 63.49 64.55 63.99 65.26 65.35 66.70 67.65 67.02 68.48 69.41 69.41 69.55 69.31 68.63 68.29 68.16 67.76 66.66 66.11 66.50 65.78 66.10 65.85 65.64 65.70 65.93 66.33 66.18 65.72 65.56 65.41 64.86
45.96 44.37 38.93 36.08 37.27 40.10 44.13 46.57 43.58 44.04 46.28 45.92 53.35 49.16 50.79 59.14 61.12 63.04 62.98 63.47 64.30 65.43 65.52 65.35 66.46 67.27 66.75 67.50 67.78 68.26 68.14 67.91 68.01 67.94 67.66 66.93 66.90 66.78 66.42 66.20 65.72 65.58 65.60 65.67 65.51 64.99 64.72 64.48 64.27
46.80 45.23 40.06 37.14 38.16 38.11 41.59 44.87 44.87 45.21 43.27 50.72 53.33 48.32 50.40 56.63 61.85 62.72 62.59 62.40 63.15 64.05 63.96 63.58 63.96 65.77 66.38 65.65 64.60 65.55 66.56 66.94 66.91 66.35 64.66 64.05 64.98 65.37 64.85 63.96 65.30 65.23 64.98 64.90 64.64 64.22 63.99 63.73 63.29
47.92 42.38 39.06 39.55 39.65 40.80 40.93 41.32 42.12 43.79 47.50 46.60 48.79 52.21 53.69 60.06 63.03 62.24 61.79 62.22 62.45 63.82 62.60 62.44 62.32 63.11 65.12 64.97 62.69 63.21 64.29 64.63 63.89 62.80 61.20 59.99 60.48 61.81 61.45 62.42 64.82 65.39 65.08 64.26 63.76 63.04 61.99 60.83 60.64
45.98 41.36 41.84 44.33 42.12 40.50 41.29 40.82 42.78 43.56 44.44 45.98 48.73 53.50 58.42 61.77 61.52 60.49 60.03 59.71 60.48 61.11 62.24 62.79 61.75 62.14 64.49 66.12 63.79 62.71 62.59 61.67 60.80 59.80 58.53 58.61 58.83 59.81 60.76 60.42 62.43 63.44 63.33 64.26 63.30 62.31 60.46 58.04 56.21
43.91 43.05 45.11 45.40 43.65 42.62 43.10 41.27 43.04 42.75 41.24 45.85 49.63 52.90 58.44 60.52 60.48 60.30 60.43 60.93 59.74 60.68 61.81 61.67 61.48 61.62 63.49 64.93 64.21 62.74 60.49 59.46 59.26 58.68 58.16 57.52 57.62 57.24 57.81 58.46 57.95 57.52 57.27 57.06 56.97 56.07 56.06 55.37 54.62
43.96 44.93 45.99 47.99 45.17 42.64 42.12 43.30 41.45 43.37 43.91 45.34 51.44 56.23 58.41 59.26 59.88 60.29 60.12 59.91 58.53 58.94 60.10 60.67 61.08 61.49 61.54 64.06 64.29 63.56 60.07 59.00 57.98 57.80 58.11 56.93 55.98 55.67 55.47 55.88 55.33 55.18 55.08 54.64 54.33 54.28 54.76 54.12 54.26
43.52 44.12 44.95 45.13 44.06 42.21 43.12 42.68 42.19 41.80 42.08 48.10 54.98 56.62 57.44 58.92 59.61 60.57 61.04 60.22 59.50 58.63 59.25 60.08 60.18 60.75 61.06 62.19 63.21 63.30 60.96 59.23 58.66 57.72 58.08 57.42 56.12 55.29 55.10 54.77 54.47 54.17 54.13 53.98 53.80 53.48 53.80 53.26 53.30
45.17 44.56 44.62 44.71 43.02 41.97 42.44 40.78 40.87 42.96 46.73 52.19 54.95 55.25 56.12 58.02 59.06 58.92 59.25 60.01 59.77 59.68 59.45 60.04 60.39 60.40 60.64 60.78 61.93 62.35 62.45 60.06 59.42 58.58 58.23 57.84 56.78 55.83 55.29 54.66 54.62 54.10 53.82 54.31 54.13 53.84 53.15 52.57 52.27
45.32 41.69 43.24 44.01 41.93 40.73 41.41 38.65 39.99 41.37 45.68 51.59 53.13 53.83 55.07 56.20 56.94 58.08 60.15 60.50 60.85 60.76 60.59 60.38 60.37 60.77 60.53 60.14 60.50 60.89 61.28 60.98 59.84 59.51 58.99 58.30 57.17 56.24 55.73 54.82 54.39 54.65 54.67 54.12 53.95 53.43 52.53 51.85 52.07
43.44 42.83 38.26 41.99 41.29 40.92 40.64 35.28 43.04 41.61 45.02 48.78 51.22 51.29 53.16 54.48 56.33 57.12 59.02 60.49 60.86 61.08 60.74 61.25 61.76 61.06 60.75 60.40 60.31 60.58 60.53 60.35 60.39 60.25 59.91 58.98 57.68 56.83 55.57 55.34 55.23 55.35 54.92 54.23 53.22 52.44 51.67 50.99 50.56
42.10 37.42 38.00 41.04 41.52 40.55 39.11 36.09 42.39 40.69 43.43 44.60 49.55 51.09 52.44 53.27 54.09 56.11 57.06 58.69 59.96 61.30 61.28 61.22 61.54 60.80 60.93 60.60 60.33 60.47 60.39 60.26 60.45 60.23 60.34 60.14 59.91 58.40 56.45 55.31 55.09 54.91 54.32 53.66 52.95 51.83 50.85 50.12 50.13
35.24 38.72 38.80 39.95 40.38 38.39 37.52 36.69 41.34 38.62 40.27 42.76 46.18 49.25 50.49 52.17 54.74 56.85 56.42 57.16 58.52 61.13 61.63 61.90 62.01 61.63 61.35 61.22 60.41 61.10 61.74 61.89 62.52 62.33 62.37 62.33 61.47 60.13 58.50 57.70 56.91 55.10 53.42 52.56 51.51 51.41 50.18 50.26 49.58
36.58 37.76 40.98 36.75 43.09 37.57 38.24 39.40 40.71 40.54 37.03 37.34 40.25 44.47 48.75 50.83 54.61 54.44 55.49 56.06 57.02 59.02 60.48 61.51 61.46 61.75 61.73 60.27 60.37 61.25 61.56 62.59 62.80 62.82 62.48 62.20 61.95 61.02 59.29 58.36 57.44 56.48 54.68 54.22 54.06 53.00 52.32 51.76 50.45
36.05 34.69 33.82 37.74 37.25 36.09 35.14 35.66 39.60 38.81 38.36 38.41 39.97 40.47 43.67 46.06 45.71 45.56 50.02 53.04 55.21 57.11 60.00 61.06 61.78 61.87 62.14 62.20 61.95 60.30 59.67 60.27 61.57 62.92 63.08 62.64 61.93 61.31 60.31 59.07 57.96 57.02 55.99 55.43 54.79 52.78 52.03 51.76 50.92
34.17 33.78 32.80 34.51 34.30 34.82 32.85 34.58 37.01 39.06 37.76 38.53 38.39 39.62 39.40 42.44 45.24 41.46 42.19 44.89 51.06 54.35 57.56 60.19 61.51 62.12 62.25 62.82 60.31 58.75 59.23 59.19 61.47 62.27 62.51 62.84 62.52 61.89 61.18 60.34 59.60 58.02 57.03 56.48 55.53 54.29 53.09 51.99 50.66
32.47 37.56 36.75 34.90 33.41 28.29 31.89 26.07 34.27 38.25 36.51 37.72 39.81 37.44 39.33 39.61 39.76 40.37 40.81 40.47 44.21 51.86 54.15 58.87 60.82 61.52 61.90 62.29 61.49 61.46 60.99 59.69 58.85 59.58 60.42 62.28 62.65 62.49 61.92 61.41 60.52 59.43 57.77 56.21 56.96 56.56 55.68 54.09 53.14
34.27 39.04 36.86 35.56 32.57 27.79 27.78 26.31 30.51 33.41 33.66 36.72 38.29 38.05 39.00 40.13 40.89 40.47 40.01 40.11 41.95 47.52 49.33 55.41 58.33 60.11 60.73 61.38 61.79 61.10 60.24 60.20 59.42 61.40 60.36 59.66 61.16 61.76 61.41 60.91 60.01 58.99 58.47 57.75 57.16 55.74 54.81 54.53 53.98
39.19 36.03 34.88 31.87 30.01 24.53 28.58 28.07 27.78 32.34 36.33 34.93 37.62 39.15 40.41 41.19 38.62 39.02 38.90 41.69 43.12 43.90 43.86 45.49 53.37 56.60 57.89 60.21 60.71 60.45 59.98 58.84 58.56 59.40 58.52 59.12 59.85 59.86 60.13 59.91 60.06 59.79 58.93 58.10 57.32 56.32 55.11 54.29 53.83
36.86 33.00 25.43 23.66 21.42 24.13 25.74 25.16 33.48 34.91 35.32 36.38 38.18 39.34 39.31 37.71 36.60 38.32 40.93 41.99 43.35 44.01 44.27 43.77 43.96 46.32 51.23 59.05 60.14 60.15 59.36 59.18 58.92 59.46 59.22 58.78 58.40 57.88 58.79 58.92 58.35 57.68 57.66 57.08 56.51 55.29 54.31 53.77 53.03
32.72 33.66 25.29 16.70 17.59 23.94 25.17 24.29 33.36 35.87 37.92 35.87 36.68 36.37 36.26 35.82 37.29 39.68 41.14 41.64 42.52 44.59 45.18 43.63 42.66 42.82 43.34 45.93 56.98 60.53 59.81 59.04 58.26 57.06 57.72 56.64 56.33 55.32 55.30 54.36 53.79 53.37 53.34 53.36 51.98 50.08 49.28 47.92 46.86
29.79 29.49 32.68 25.10 14.51 18.36 23.15 27.19 32.61 34.36 35.47 35.20 36.33 36.57 36.33 36.17 37.97 39.78 40.98 41.84 42.39 44.37 45.53 45.23 43.84 44.74 45.94 45.63 46.03 54.63 58.18 58.53 56.64 54.67 54.04 53.35 52.02 50.05 49.21 48.28 47.12 46.73 46.45 45.77 43.47 42.74 41.22 41.13 40.08
33.63 36.01 27.38 25.99 15.05 12.49 22.18 23.45 29.77 29.46 35.84 36.33 35.23 36.94 37.05 37.21 38.61 40.00 40.56 40.86 41.74 42.82 43.65 44.54 45.16 44.85 44.70 45.11 46.93 50.88 52.83 54.02 52.35 51.05 49.49 48.08 46.17 46.28 44.31 42.86 42.01 41.00 40.34 38.97 38.57 37.57 37.25 36.95 36.63
29.41 28.99 28.72 30.23 25.61 20.28 19.89 25.81 30.26 34.52 36.29 36.66 37.98 38.22 37.31 37.96 38.56 39.46 40.06 40.44 40.81 41.06 41.45 41.70 42.34 41.99 41.68 41.77 43.29 45.50 45.72 46.06 45.91 45.05 43.77 42.12 40.77 40.22 39.53 38.59 37.58 36.85 36.12 35.69 35.41 34.66 34.31 33.85 33.54
31.26 32.89 34.01 27.55 24.18 22.96 23.56 27.92 31.63 33.33 34.50 35.56 36.37 37.32 37.85 38.58 38.87 38.78 39.37 38.40 38.76 39.90 39.96 39.95 39.58 39.97 39.33 38.82 39.97 40.71 41.70 42.09 41.45 40.15 38.76 38.30 37.78 37.60 37.06 36.09 35.21 34.50 34.12 33.77 33.26 32.44 32.45 31.99 31.70
MSLP
1013.10 1013.10 1013.21 1013.79 1015.75 1016.96 1017.35 1017.32 1017.14 1017.19 1017.42 1017.52 1017.78 1018.27 1018.78 1019.04 1019.55 1020.49 1020.06 1020.05 1019.92 1019.96 1020.14 1020.30 1020.53 1020.85 1021.02 1021.05 1021.06 1021.22 1021.42 1021.58 1021.62 1021.72 1021.80 1021.89 1022.00 1022.04 1022.12 1022.16 1022.14 1022.12 1022.26 1022.37 1022.46 1022.68 1022.79 1022.96 1023.10
1013.17 1013.01 1013.76 1015.19 1016.78 1017.81 1017.74 1017.25 1017.28 1017.22 1017.60 1017.79 1017.96 1018.53 1018.97 1019.51 1019.56 1019.94 1020.11 1020.04 1019.95 1020.17 1020.30 1020.51 1020.77 1021.08 1021.28 1021.38 1021.42 1021.52 1021.63 1021.67 1021.78 1022.04 1022.13 1022.27 1022.34 1022.47 1022.60 1022.56 1022.51 1022.59 1022.67 1022.81 1022.84 1023.09 1023.21 1023.26 1023.32
1013.04 1013.33 1015.03 1016.35 1017.72 1017.91 1017.65 1017.11 1017.21 1017.39 1017.65 1017.84 1018.42 1018.71 1019.02 1019.48 1019.78 1019.93 1019.80 1019.85 1020.12 1020.40 1020.50 1020.63 1020.88 1021.22 1021.56 1021.74 1021.80 1021.84 1021.92 1021.93 1022.13 1022.40 1022.57 1022.67 1022.93 1022.98 1023.01 1023.12 1023.14 1023.12 1023.09 1023.34 1023.45 1023.52 1023.69 1023.76 1023.95
1013.58 1014.44 1016.51 1016.99 1017.59 1017.32 1017.26 1017.05 1017.11 1017.55 1017.67 1017.89 1018.42 1019.02 1019.23 1019.11 1019.36 1019.55 1019.75 1019.99 1020.28 1020.53 1020.73 1020.92 1021.08 1021.32 1021.74 1022.03 1022.10 1022.21 1022.35 1022.38 1022.45 1022.75 1022.97 1023.12 1023.26 1023.45 1023.45 1023.49 1023.59 1023.63 1023.74 1023.86 1024.00 1024.13 1024.12 1024.23 1024.47
1014.16 1015.63 1016.98 1017.70 1017.53 1017.21 1016.92 1017.02 1017.13 1017.66 1017.74 1018.05 1018.32 1019.29 1019.63 1019.52 1019.35 1019.72 1020.05 1020.11 1020.40 1020.74 1020.86 1021.11 1021.19 1021.46 1021.84 1022.05 1022.30 1022.49 1022.66 1022.80 1022.87 1023.04 1023.37 1023.52 1023.61 1023.76 1023.90 1023.96 1024.01 1024.14 1024.22 1024.28 1024.51 1024.55 1024.53 1024.72 1024.89
1015.20 1016.46 1017.59 1018.09 1017.70 1017.17 1016.83 1016.87 1017.12 1017.62 1017.95 1018.22 1018.60 1019.35 1019.95 1019.74 1019.59 1020.00 1020.20 1020.39 1020.42 1020.73 1021.11 1021.38 1021.38 1021.46 1021.92 1022.33 1022.54 1022.74 1022.96 1023.13 1023.26 1023.40 1023.65 1023.80 1023.96 1024.16 1024.29 1024.45 1024.51 1024.58 1024.67 1024.83 1024.98 1025.05 1025.19 1025.30 1025.41
1016.00 1017.18 1018.20 1018.17 1017.81 1017.09 1016.71 1016.50 1016.96 1017.51 1017.90 1018.09 1018.38 1019.62 1020.28 1020.08 1019.96 1019.92 1020.33 1020.52 1020.71 1020.78 1021.29 1021.66 1021.65 1021.59 1021.95 1022.27 1022.56 1022.85 1023.14 1023.37 1023.58 1023.75 1023.96 1024.09 1024.29 1024.48 1024.68 1024.84 1024.91 1025.05 1025.20 1025.34 1025.43 1025.55 1025.66 1025.72 1025.81
1016.61 1017.57 1018.41 1018.19 1017.85 1017.05 1016.60 1016.56 1016.67 1017.17 1017.80 1018.04 1018.20 1019.15 1019.96 1019.61 1020.09 1020.19 1020.66 1021.04 1021.18 1021.28 1021.51 1021.84 1022.03 1022.05 1022.10 1022.50 1022.77 1023.05 1023.38 1023.62 1023.86 1024.09 1024.31 1024.47 1024.63 1024.84 1025.01 1025.14 1025.21 1025.31 1025.47 1025.60 1025.73 1025.90 1026.05 1026.16 1026.20
1016.86 1017.76 1018.09 1017.92 1017.74 1017.04 1016.76 1016.83 1016.97 1017.09 1017.50 1018.07 1018.32 1018.52 1018.67 1019.34 1020.12 1020.50 1020.97 1021.26 1021.54 1021.74 1021.89 1022.14 1022.42 1022.47 1022.34 1022.37 1022.81 1023.18 1023.56 1023.83 1024.15 1024.43 1024.68 1024.89 1025.09 1025.26 1025.41 1025.47 1025.53 1025.66 1025.76 1025.84 1025.94 1026.13 1026.32 1026.41 1026.41
1017.16 1017.72 1017.65 1017.45 1017.32 1017.28 1016.91 1016.93 1017.06 1017.34 1017.73 1018.10 1018.47 1018.70 1018.89 1019.67 1020.05 1020.50 1020.64 1021.08 1021.38 1021.79 1022.12 1022.18 1022.46 1022.79 1022.87 1022.79 1023.04 1023.39 1023.79 1024.14 1024.43 1024.70 1024.97 1025.27 1025.42 1025.56 1025.70 1025.75 1025.86 1026.00 1026.10 1026.15 1026.24 1026.41 1026.61 1026.78 1026.85
1017.21 1017.50 1017.53 1017.44 1016.98 1017.12 1017.21 1016.85 1017.00 1017.30 1017.89 1017.59 1017.78 1018.74 1019.13 1019.59 1020.17 1020.47 1020.68 1020.88 1021.14 1021.40 1021.90 1022.19 1022.43 1022.81 1023.09 1023.16 1023.45 1023.82 1024.10 1024.38 1024.63 1024.89 1025.12 1025.37 1025.67 1025.89 1026.04 1026.18 1026.33 1026.41 1026.46 1026.61 1026.72 1026.87 1027.01 1027.08 1027.16
1017.20 1017.05 1017.00 1016.96 1016.96 1017.01 1017.36 1017.37 1017.08 1017.16 1016.66 1016.69 1017.16 1017.93 1018.78 1019.26 1019.67 1019.98 1020.55 1020.93 1021.22 1021.52 1021.70 1022.09 1022.27 1022.68 1022.95 1023.37 1023.58 1023.69 1024.07 1024.38 1024.83 1025.03 1025.19 1025.51 1025.78 1025.97 1026.25 1026.43 1026.56 1026.69 1026.77 1026.85 1026.97 1027.07 1027.06 1027.16 1027.26
1016.82 1016.76 1016.72 1016.48 1016.82 1017.06 1017.09 1017.21 1017.32 1016.84 1016.57 1016.83 1017.53 1018.40 1018.58 1018.92 1019.44 1019.82 1020.00 1020.69 1020.93 1021.19 1021.56 1021.93 1022.35 1022.52 1022.99 1023.25 1023.59 1023.85 1024.25 1024.43 1024.74 1025.12 1025.34 1025.61 1025.98 1026.23 1026.36 1026.50 1026.67 1026.80 1026.88 1027.01 1027.11 1027.24 1027.37 1027.47 1027.43
1016.51 1016.64 1016.77 1017.00 1017.23 1017.24 1017.53 1017.02 1017.22 1016.43 1016.62 1017.37 1017.79 1018.31 1018.56 1018.81 1018.99 1019.77 1020.14 1020.19 1020.91 1021.04 1021.21 1021.53 1022.00 1022.26 1022.74 1023.14 1023.37 1023.75 1024.07 1024.37 1024.56 1024.88 1025.21 1025.62 1025.96 1026.21 1026.37 1026.56 1026.66 1026.73 1026.78 1026.86 1027.05 1027.27 1027.49 1027.65 1027.67
1016.80 1017.29 1017.41 1017.30 1017.29 1017.53 1017.44 1017.43 1016.83 1016.47 1017.09 1017.63 1018.16 1018.51 1018.74 1018.79 1019.06 1019.15 1019.50 1019.80 1020.29 1020.70 1020.96 1021.28 1021.70 1022.09 1022.33 1022.76 1023.22 1023.48 1023.82 1024.31 1024.55 1024.65 1024.87 1025.23 1025.64 1025.93 1026.14 1026.40 1026.66 1026.76 1026.89 1027.07 1027.18 1027.24 1027.34 1027.49 1027.61
1017.36 1017.68 1017.78 1017.38 1017.43 1017.46 1017.80 1017.38 1016.59 1016.60 1017.14 1017.89 1018.39 1018.72 1018.78 1018.68 1018.42 1018.75 1019.31 1019.67 1020.01 1020.43 1020.78 1021.09 1021.19 1021.84 1022.08 1022.37 1022.75 1023.19 1023.58 1023.93 1024.26 1024.49 1024.71 1024.97 1025.26 1025.60 1025.96 1026.26 1026.46 1026.55 1026.80 1027.06 1027.24 1027.40 1027.50 1027.62 1027.68
1017.93 1017.90 1018.07 1017.80 1017.52 1017.45 1017.81 1017.55 1016.58 1016.69 1017.21 1017.73 1018.24 1018.58 1018.70 1018.69 1018.62 1018.54 1018.79 1019.09 1019.68 1020.02 1020.54 1020.57 1021.00 1021.60 1021.92 1022.20 1022.47 1022.85 1023.30 1023.61 1023.84 1024.18 1024.45 1024.68 1024.95 1025.22 1025.65 1026.01 1026.19 1026.46 1026.69 1026.84 1027.02 1027.28 1027.48 1027.59 1027.61
1018.04 1018.33 1017.99 1017.56 1017.76 1017.57 1017.54 1017.27 1017.07 1017.08 1017.49 1017.42 1017.75 1018.31 1018.70 1018.29 1017.84 1017.78 1018.28 1018.60 1019.08 1019.52 1019.95 1020.26 1020.44 1021.01 1021.40 1021.77 1022.14 1022.62 1023.01 1023.28 1023.30 1023.62 1023.93 1024.18 1024.46 1024.77 1025.18 1025.50 1025.80 1026.23 1026.65 1026.88 1027.07 1027.17 1027.35 1027.47 1027.46
1017.82 1018.27 1018.08 1017.86 1017.75 1017.80 1017.39 1017.30 1016.97 1017.06 1017.70 1017.76 1017.72 1017.99 1018.08 1017.85 1017.15 1017.62 1017.94 1018.24 1018.65 1019.14 1019.45 1019.68 1020.14 1020.52 1021.12 1021.72 1022.22 1022.40 1022.56 1022.87 1022.92 1023.07 1023.51 1023.88 1024.11 1024.35 1024.84 1025.12 1025.43 1025.68 1026.01 1026.23 1026.54 1026.87 1027.05 1027.22 1027.36
1018.02 1018.46 1018.58 1018.27 1018.04 1018.32 1017.70 1017.32 1016.84 1016.92 1016.94 1016.95 1017.07 1017.40 1017.31 1017.37 1017.32 1017.25 1017.56 1017.81 1017.87 1018.44 1018.82 1019.15 1019.22 1019.95 1020.42 1020.77 1021.16 1021.52 1021.96 1022.27 1022.16 1022.47 1022.79 1023.08 1023.51 1023.96 1024.27 1024.61 1024.92 1025.26 1025.65 1025.93 1026.16 1026.57 1026.95 1027.05 1027.09
1017.91 1018.45 1018.75 1018.86 1018.53 1018.43 1018.19 1017.12 1016.79 1016.20 1016.25 1016.33 1016.36 1016.23 1016.77 1016.89 1016.79 1016.92 1017.13 1017.48 1017.60 1017.83 1018.15 1018.29 1018.60 1019.13 1019.57 1020.13 1020.66 1021.32 1021.76 1022.11 1022.14 1022.30 1022.67 1022.81 1022.98 1023.32 1023.77 1024.02 1024.24 1024.58 1024.97 1025.30 1025.61 1025.96 1026.43 1026.75 1027.00
1018.13 1018.38 1018.85 1019.32 1019.60 1019.28 1018.67 1017.06 1015.59 1015.76 1015.60 1015.38 1015.18 1015.73 1015.77 1015.94 1016.17 1016.40 1016.50 1016.90 1017.16 1017.07 1017.48 1017.61 1017.89 1018.47 1018.95 1019.40 1020.01 1020.31 1020.83 1021.46 1021.68 1021.75 1022.07 1022.31 1022.55 1022.79 1023.16 1023.39 1023.64 1023.98 1024.50 1024.92 1025.27 1025.65 1025.97 1026.38 1026.68
1018.02 1018.05 1019.08 1019.59 1020.17 1020.36 1019.34 1018.77 1015.09 1014.91 1014.65 1013.91 1014.42 1014.86 1014.83 1014.95 1015.26 1015.53 1015.77 1016.14 1016.30 1016.82 1017.24 1017.32 1017.45 1017.92 1018.44 1018.95 1019.10 1019.59 1020.10 1020.49 1021.01 1021.49 1021.84 1022.03 1022.12 1022.38 1022.60 1022.98 1023.44 1023.93 1024.27 1024.48 1024.66 1025.07 1025.58 1026.04 1026.43
1017.90 1018.56 1019.50 1020.35 1020.87 1020.71 1018.48 1018.50 1015.35 1014.13 1013.11 1013.65 1013.52 1013.68 1013.77 1014.16 1014.51 1015.06 1015.59 1016.18 1016.45 1016.93 1017.24 1017.50 1017.56 1017.84 1018.13 1018.60 1018.79 1019.06 1019.49 1020.12 1020.78 1021.22 1021.69 1021.72 1022.05 1022.28 1022.71 1022.90 1023.15 1023.41 1023.75 1024.07 1024.34 1024.61 1025.04 1025.50 1026.04
1017.61 1019.29 1020.96 1021.65 1021.66 1019.51 1018.07 1018.38 1014.17 1013.17 1013.06 1012.87 1012.81 1012.91 1013.08 1013.85 1014.50 1015.39 1015.98 1016.13 1016.56 1016.95 1017.16 1017.41 1017.49 1017.91 1018.18 1018.44 1018.40 1018.69 1018.91 1019.55 1020.13 1020.44 1020.99 1021.54 1022.03 1022.42 1022.65 1022.91 1023.26 1023.58 1023.74 1023.98 1024.39 1024.72 1025.20 1025.46 1025.95
1017.30 1017.96 1018.53 1020.33 1020.95 1019.52 1018.65 1017.02 1013.27 1012.74 1012.12 1012.32 1012.85 1012.97 1013.33 1013.90 1014.16 1014.73 1015.43 1015.95 1016.39 1016.79 1017.03 1017.25 1017.22 1017.56 1018.05 1018.44 1018.24 1018.42 1018.79 1019.08 1019.58 1020.23 1020.77 1021.48 1021.97 1022.54 1022.70 1023.21 1023.65 1024.09 1024.48 1024.74 1024.94 1025.51 1025.93 1026.24 1026.77
1016.96 1017.44 1017.54 1019.14 1020.95 1020.12 1017.95 1015.70 1013.47 1012.57 1012.41 1012.40 1012.61 1013.28 1013.17 1013.63 1014.41 1014.97 1015.42 1015.73 1016.10 1016.59 1016.82 1017.15 1017.33 1017.34 1017.87 1018.16 1018.32 1018.34 1018.69 1019.03 1019.41 1020.13 1020.77 1021.65 1022.21 1022.91 1023.28 1023.62 1024.34 1024.75 1024.90 1025.45 1026.03 1026.60 1027.10 1027.23 1027.55
1015.15 1015.96 1017.47 1018.39 1019.95 1019.64 1017.45 1015.64 1013.06 1012.33 1012.23 1011.96 1012.37 1012.63 1012.66 1013.32 1014.56 1015.17 1015.82 1016.19 1016.23 1016.71 1017.17 1017.34 1017.32 1017.86 1017.96 1018.23 1018.47 1018.38 1018.75 1019.06 1019.40 1020.19 1021.20 1021.94 1022.67 1022.93 1023.74 1024.35 1024.65 1025.10 1025.64 1025.90 1026.31 1027.23 1027.72 1027.71 1028.08
1015.17 1015.35 1016.15 1016.75 1018.11 1018.12 1017.10 1014.40 1012.19 1011.36 1011.47 1011.59 1011.36 1011.72 1012.57 1013.15 1014.18 1015.40 1016.02 1016.44 1016.51 1016.84 1017.39 1017.57 1017.47 1017.94 1018.44 1018.51 1018.93 1018.89 1019.17 1019.50 1019.88 1020.58 1021.50 1022.29 1022.91 1023.17 1024.16 1024.95 1025.28 1025.73 1026.26 1026.88 1026.96 1027.47 1028.02 1028.14 1028.63
1014.42 1014.40 1014.78 1015.51 1016.39 1016.70 1016.30 1012.88 1011.42 1010.88 1011.08 1011.48 1011.52 1012.10 1012.73 1013.64 1014.81 1015.58 1016.27 1016.84 1016.99 1017.20 1017.60 1017.83 1017.78 1018.15 1018.79 1018.97 1019.14 1019.31 1019.72 1019.88 1020.35 1021.06 1021.91 1022.76 1023.18 1023.79 1024.28 1025.19 1025.77 1026.26 1026.71 1027.12 1027.46 1027.85 1028.39 1028.52 1028.87
Wind_Speed
3 2 3 6 6 6 0 2 1 3 1 3 3 4 5 4 3 4 1 2 7 6 6 8 13 14 13 13 13 13 13 14 16 15 15 16 16 16 16 15 14 15 17 16 18 18 18 18 18
2 2 5 3 6 3 4 2 4 2 5 6 5 3 4 3 2 5 4 6 7 7 6 8 12 13 13 12 12 12 12 12 19 16 15 15 15 16 15 15 14 14 16 17 17 17 17 17 18
2 5 5 5 4 3 4 3 3 2 7 1 4 4 3 3 2 7 5 9 8 7 6 8 12 14 13 12 12 11 12 11 17 15 14 16 15 15 15 14 14 15 16 16 18 18 16 18 17
4 5 5 5 2 2 4 3 4 5 1 3 3 6 2 2 8 7 10 9 9 7 7 8 12 14 14 12 12 12 13 15 16 17 14 13 15 14 13 14 13 14 15 16 17 15 15 17 16
5 3 5 3 3 3 3 3 6 2 3 3 1 3 2 2 7 12 10 8 11 6 6 7 11 13 13 13 13 13 13 14 13 15 13 12 13 13 13 13 13 13 13 14 15 16 15 15 14
5 3 5 1 4 4 2 5 5 1 0 3 5 5 3 1 11 8 8 8 8 9 6 5 9 13 12 12 12 12 12 13 12 13 12 12 12 12 13 11 11 11 12 13 14 16 15 14 13
5 5 2 3 3 3 3 7 4 4 3 3 9 5 2 2 4 8 7 6 7 8 6 4 5 10 12 12 11 11 11 11 10 11 10 10 9 8 13 9 10 11 11 12 13 14 13 12 11
5 4 5 2 2 3 2 4 5 6 4 2 2 6 5 6 7 8 7 6 6 5 6 4 3 5 7 7 10 10 10 10 10 9 8 8 8 9 9 8 9 10 10 10 11 12 12 12 10
3 4 4 4 4 4 1 3 1 2 7 1 2 5 2 11 10 9 10 8 7 5 4 5 3 2 6 8 7 9 9 9 8 7 8 7 4 5 6 6 9 9 8 9 9 11 10 9 9
5 4 7 3 2 4 2 2 7 4 4 2 1 4 9 15 15 15 14 12 12 11 9 6 5 2 2 5 6 6 5 4 4 5 5 4 4 3 4 5 7 7 7 7 7 8 8 6 3
3 5 5 5 2 1 5 2 6 7 3 8 10 8 13 15 15 15 14 13 12 10 9 7 6 5 3 5 3 2 2 3 3 5 4 4 3 3 3 3 3 2 4 3 4 4 4 5 4
4 5 5 3 1 4 3 4 4 7 6 4 9 15 15 19 19 17 15 11 8 8 8 6 7 7 6 3 3 3 3 3 3 3 5 3 2 3 3 2 1 1 1 2 2 2 3 4 4
4 5 5 2 7 5 2 8 7 8 2 3 10 13 16 16 14 11 11 8 7 9 7 8 6 6 5 8 3 4 4 3 4 4 4 3 3 3 3 2 2 1 1 1 0 1 2 3 4
6 5 2 4 4 2 5 3 2 5 6 6 11 14 12 15 15 7 8 11 10 9 10 8 9 7 7 6 8 6 5 4 4 4 4 4 3 3 3 2 2 2 2 1 1 0 2 3 3
4 1 3 6 4 4 2 6 9 4 4 8 9 8 9 10 9 14 13 12 12 9 9 10 10 8 9 7 6 5 4 4 4 4 6 6 5 5 4 3 2 2 1 1 1 1 1 2 2
5 2 6 3 6 3 6 10 11 6 9 9 9 7 8 9 13 10 9 9 8 8 10 9 9 9 9 8 6 4 4 4 4 4 4 6 6 6 4 3 3 2 2 1 0 0 2 2 2
2 4 9 7 6 4 6 6 8 6 8 9 9 9 9 8 7 8 9 10 9 10 9 11 10 11 10 7 5 5 6 5 5 4 4 6 7 6 5 4 3 3 2 2 2 1 2 1 2
7 11 4 13 5 5 6 8 11 4 7 12 9 8 9 10 17 13 9 9 9 10 10 10 10 11 10 6 4 3 4 5 5 5 5 6 6 6 5 4 4 4 3 3 2 3 2 3 2
6 4 15 4 7 5 11 14 10 6 5 8 8 9 12 13 11 7 8 9 8 8 11 12 11 11 9 5 6 5 6 6 5 5 6 6 6 7 6 4 4 4 5 4 4 3 3 2 2
4 4 4 5 3 4 4 10 10 6 7 8 12 9 12 8 8 7 8 9 13 13 13 12 14 12 12 9 7 3 4 3 3 5 7 8 7 7 6 6 5 5 3 4 5 4 1 2 3
5 4 2 4 1 3 2 10 10 7 6 6 8 9 6 11 14 8 9 10 9 12 14 14 14 14 13 12 5 3 4 2 3 3 3 5 8 8 8 8 6 6 5 5 4 4 5 2 1
8 7 3 2 2 5 2 8 12 11 11 11 13 9 12 11 9 8 9 9 11 15 9 13 13 14 13 13 10 12 10 8 4 4 4 5 6 6 7 8 7 6 4 4 3 3 3 3 4
4 7 6 4 3 4 4 4 6 6 10 12 10 11 12 14 14 13 12 9 8 7 8 9 10 12 11 13 13 11 8 6 4 5 6 6 5 7 5 4 4 4 3 4 5 4 4 3 2
9 7 7 5 3 4 9 6 6 9 12 4 8 11 14 15 11 9 4 5 5 4 6 7 8 9 9 12 12 13 12 8 5 5 5 4 2 3 3 4 4 4 4 4 3 3 4 4 3
12 15 3 2 3 14 3 5 18 7 7 7 11 12 11 7 7 8 9 8 7 8 7 6 8 8 7 10 11 12 11 11 11 8 6 5 4 2 4 4 4 3 4 4 4 5 4 4 3
12 15 8 9 5 7 4 10 11 11 10 7 8 7 7 8 8 12 11 8 8 7 7 7 8 7 7 7 9 11 10 7 6 5 4 4 4 4 5 6 6 6 6 6 7 5 5 6 6
6 11 5 5 2 3 7 10 9 9 10 8 10 7 10 8 7 8 7 7 8 7 7 7 7 6 6 7 6 6 6 9 7 7 7 5 7 6 7 8 7 7 7 8 7 6 5 6 6
10 11 4 1 2 5 6 6 11 3 11 11 9 13 11 7 7 7 6 6 5 5 4 5 5 5 4 5 4 6 6 6 9 9 10 9 7 9 9 8 8 8 7 8 8 6 5 7 4
4 6 4 5 7 7 8 10 9 11 12 12 14 10 6 8 9 5 4 5 6 5 5 5 6 6 5 5 4 6 6 8 9 9 9 8 7 9 9 8 8 8 8 6 8 7 6 8 6
2 8 15 7 13 5 3 13 3 8 8 7 10 6 6 8 6 6 6 5 5 6 6 5 5 6 5 5 6 7 8 9 10 10 8 7 10 8 10 9 9 8 7 6 7 8 6 7 6
Wind_Direction
343 75 78 43 53 62 263 252 288 126 107 338 68 128 159 79 131 192 22 186 131 130 133 118 113 110 112 108 103 101 104 105 92 88 92 90 88 82 84 79 88 84 86 86 86 86 88 87 85
333 51 43 79 82 58 273 265 215 176 143 126 67 63 42 84 85 121 107 141 116 120 114 110 113 117 114 106 106 110 107 107 98 93 91 95 91 91 92 93 88 91 93 86 89 89 90 86 81
72 47 76 88 107 157 228 209 181 84 147 64 104 65 127 127 65 143 151 128 106 102 106 122 124 120 118 109 108 100 95 96 100 97 95 97 92 93 95 91 89 91 94 89 80 72 88 84 81
46 17 38 78 174 232 203 188 145 124 246 73 139 67 15 226 154 153 139 123 115 114 109 127 127 126 123 117 112 108 96 92 99 100 98 100 99 95 96 98 93 95 91 85 81 75 80 88 82
47 54 54 55 296 266 250 159 136 159 153 108 307 127 53 31 112 133 136 134 131 125 127 140 134 131 128 125 117 108 102 98 100 105 105 107 106 105 101 97 98 92 92 90 83 76 85 86 84
51 80 56 265 273 285 259 152 140 125 96 164 83 99 174 120 136 150 141 143 141 134 126 140 141 134 129 125 120 115 118 115 112 113 116 116 109 113 104 100 96 100 98 88 84 78 78 82 82
95 74 263 192 266 306 192 145 152 150 144 228 151 103 299 215 174 141 137 133 131 125 122 124 142 140 134 132 128 126 124 120 117 112 108 116 120 106 111 102 98 93 89 86 84 82 77 74 83
100 92 146 263 257 274 208 169 131 147 191 95 175 168 200 203 161 118 110 112 113 112 123 130 123 145 134 132 131 129 125 120 114 110 105 91 98 100 103 93 100 99 93 92 89 84 77 70 74
107 88 155 201 170 266 97 184 45 119 118 210 179 157 211 128 134 131 140 144 145 129 128 123 118 159 146 138 140 127 130 130 121 113 103 82 88 102 98 111 103 100 93 93 89 87 83 73 61
100 128 193 197 208 307 272 215 173 142 127 236 188 40 121 145 157 165 167 173 169 173 175 166 148 164 146 145 143 131 129 129 129 125 117 106 103 111 108 105 101 91 80 73 75 75 71 63 52
165 187 183 232 250 109 291 261 180 131 218 211 193 159 155 162 171 177 185 189 185 173 177 175 159 155 162 167 131 108 121 130 137 139 133 126 107 88 85 90 68 67 63 53 46 37 39 40 38
157 202 178 230 341 17 310 310 230 194 216 256 195 165 156 171 182 185 191 190 178 176 177 171 165 168 154 160 178 155 156 150 145 156 152 138 129 124 131 130 122 68 32 55 51 33 19 27 19
187 180 185 284 343 298 275 240 236 236 276 69 129 158 176 180 184 189 185 185 180 180 181 178 171 171 164 166 177 180 181 159 156 159 166 145 153 164 159 172 158 163 79 70 50 12 2 0 355
201 175 159 233 252 306 273 261 166 259 133 126 153 180 183 186 183 172 182 179 190 190 190 170 181 169 163 174 175 187 193 176 162 171 182 180 178 180 180 184 205 213 185 182 147 17 353 341 347
95 172 217 229 166 257 174 281 215 187 142 164 186 191 189 192 172 196 197 189 189 199 183 179 178 179 175 179 180 178 179 172 181 184 183 182 184 188 186 196 212 228 221 249 9 17 11 339 337
130 132 224 187 153 258 131 274 271 170 156 193 203 205 205 199 201 192 199 197 191 184 186 180 179 190 185 184 180 179 179 177 191 188 179 189 187 191 191 197 220 214 208 186 208 314 323 298 294
255 206 216 298 205 141 167 269 269 169 187 201 205 209 210 227 227 204 196 187 186 189 188 182 180 186 193 188 182 179 183 188 193 184 190 193 198 189 184 194 209 202 193 194 192 215 188 268 293
184 208 216 223 213 193 214 239 283 260 199 217 204 208 220 219 227 215 194 185 184 192 190 192 185 189 192 186 163 169 181 203 185 189 193 184 195 189 186 188 191 185 194 219 195 213 204 233 257
157 179 233 250 213 200 237 232 237 250 240 257 232 216 225 226 233 209 199 186 183 193 191 192 185 191 177 172 186 198 200 196 191 176 186 182 190 187 188 195 209 178 199 202 196 197 214 271 194
159 180 247 296 302 188 279 252 241 212 231 217 225 234 224 225 232 216 211 194 186 200 205 196 193 189 192 191 196 176 164 191 172 183 189 190 183 187 190 193 202 192 192 206 198 178 186 240 180
215 179 155 240 295 249 343 259 244 248 228 229 230 221 220 225 232 221 220 211 202 200 201 198 197 193 193 193 138 106 92 96 155 172 173 200 194 191 194 200 202 193 188 215 190 175 187 229 239
214 147 128 46 312 246 200 278 228 224 232 219 227 214 226 223 229 225 220 214 207 215 200 199 196 197 196 184 183 194 198 198 196 181 187 203 195 197 198 212 202 196 184 193 217 203 198 174 237
169 146 165 158 102 360 232 268 243 166 238 235 227 223 228 227 221 223 215 217 210 184 195 199 188 191 187 191 192 191 189 187 176 196 182 201 205 200 203 190 170 179 177 205 198 181 192 186 202
142 59 32 41 107 245 213 194 234 213 229 230 228 230 224 230 221 223 198 168 184 191 188 189 181 188 180 186 187 186 187 177 169 175 207 193 150 121 143 147 155 166 172 185 185 172 175 175 194
162 152 172 213 222 236 147 166 244 262 238 229 216 235 237 232 194 195 199 188 180 186 191 188 174 188 187 192 189 191 187 184 193 196 191 161 141 135 139 134 130 118 116 115 112 107 95 98 97
190 183 159 196 221 252 79 228 247 217 249 222 256 259 276 241 210 200 192 183 178 179 184 189 181 180 184 195 205 201 190 190 186 165 147 139 127 123 107 95 89 85 75 78 81 73 61 68 68
196 209 184 108 29 49 207 272 300 248 265 255 252 256 246 237 205 198 175 175 170 175 180 187 185 177 192 201 190 204 187 183 158 133 123 120 118 111 102 93 90 77 84 81 77 77 80 79 75
170 156 171 136 199 259 274 265 222 241 227 238 240 234 232 197 197 185 177 180 164 164 164 165 163 173 163 156 165 176 163 142 129 129 125 123 122 115 104 100 100 92 84 89 96 87 78 87 70
149 171 195 161 159 212 253 258 213 213 221 236 238 254 264 196 172 179 174 171 160 146 165 161 146 143 138 130 128 125 119 116 112 116 114 117 119 111 112 112 101 98 96 88 91 92 90 84 78
232 190 198 194 218 228 183 258 215 245 263 275 272 226 171 156 165 170 169 169 166 165 164 161 135 127 126 116 113 110 117 118 115 112 113 122 115 106 112 108 102 101 98 96 92 89 82 90 83